RYR36C LEMI-EGHH

Flight info

Callsign RYR36C
Flight time 2h 16m
Altitude 36000
Route ALT N851 MITOS N608 COMPI Y90 USKAR N863 GIROM DCT GONUP DCT MANAK DCT EPAPU UM184 EKRAS UT507 REVTU UY110 ORIST Y110 THRED
Aircraft B738/M-SDE2E3FGHIRWXY/LB1

Departure

Time 2026-04-26 13:40
Airport Region of Murcia International Airport (LEMI)

Arrival

Time 2026-04-26 15:57
Airport Bournemouth Airport (EGHH)
Time Latitude Longitude Altitude Speed Heading
2026-04-26 13:16 37.80341 -1.13131 648 ft 0 kts 315°
2026-04-26 13:34 37.80329 -1.13116 649 ft 4 kts 307°
2026-04-26 13:34 37.80316 -1.13087 646 ft 4 kts 288°
2026-04-26 13:34 37.80311 -1.13054 648 ft 4 kts 262°
2026-04-26 13:34 37.80315 -1.13034 647 ft 4 kts 234°
2026-04-26 13:35 37.80319 -1.13027 648 ft 0 kts 225°
2026-04-26 13:36 37.80319 -1.13028 648 ft 1 kts 225°
2026-04-26 13:37 37.80285 -1.13070 647 ft 14 kts 225°
2026-04-26 13:37 37.80198 -1.13157 646 ft 17 kts 182°
2026-04-26 13:37 37.80105 -1.13084 646 ft 16 kts 174°
2026-04-26 13:37 37.80013 -1.13165 647 ft 17 kts 226°
2026-04-26 13:38 37.79931 -1.13273 650 ft 17 kts 226°
2026-04-26 13:38 37.79850 -1.13380 651 ft 18 kts 226°
2026-04-26 13:38 37.79735 -1.13528 649 ft 25 kts 225°
2026-04-26 13:38 37.79618 -1.13677 646 ft 23 kts 225°
2026-04-26 13:39 37.79514 -1.13781 646 ft 15 kts 169°
2026-04-26 13:39 37.79433 -1.13706 645 ft 15 kts 137°
2026-04-26 13:39 37.79441 -1.13593 643 ft 18 kts 44°
2026-04-26 13:39 37.79657 -1.13310 646 ft 77 kts 45°
2026-04-26 13:40 37.80184 -1.12637 644 ft 136 kts 45°
2026-04-26 13:40 37.80940 -1.11668 899 ft 163 kts 49°
2026-04-26 13:40 37.81780 -1.10628 1512 ft 177 kts 40°
2026-04-26 13:40 37.82933 -1.10003 2234 ft 184 kts 20°
2026-04-26 13:41 37.84057 -1.09243 2783 ft 193 kts 46°
2026-04-26 13:41 37.84969 -1.07877 2957 ft 212 kts 50°
2026-04-26 13:41 37.85962 -1.06429 3300 ft 224 kts 49°
2026-04-26 13:41 37.87028 -1.04947 3753 ft 233 kts 48°
2026-04-26 13:42 37.88137 -1.03353 4106 ft 248 kts 53°
2026-04-26 13:42 37.89164 -1.01569 4854 ft 252 kts 56°
2026-04-26 13:42 37.90170 -0.99753 5608 ft 255 kts 56°
2026-04-26 13:42 37.91192 -0.97901 6357 ft 257 kts 56°
2026-04-26 13:43 37.92230 -0.96028 7059 ft 262 kts 56°
2026-04-26 13:43 37.93281 -0.94139 7760 ft 265 kts 56°
2026-04-26 13:43 37.94355 -0.92216 8398 ft 270 kts 56°
2026-04-26 13:43 37.95447 -0.90267 9107 ft 273 kts 56°
2026-04-26 13:44 37.96553 -0.88294 9843 ft 276 kts 56°
2026-04-26 13:44 37.97674 -0.86299 10422 ft 283 kts 56°
2026-04-26 13:44 37.98858 -0.84187 10611 ft 304 kts 56°
2026-04-26 13:44 37.99688 -0.82708 10717 ft 318 kts 56°
2026-04-26 13:45 37.99812 -0.82488 10739 ft 320 kts 56°
2026-04-26 13:45 38.00459 -0.81335 10898 ft 327 kts 56°
2026-04-26 13:45 38.01791 -0.78965 11470 ft 333 kts 56°
2026-04-26 13:46 38.03140 -0.76566 12115 ft 336 kts 56°
2026-04-26 13:46 38.04511 -0.74125 12701 ft 342 kts 56°
2026-04-26 13:46 38.05899 -0.71654 13388 ft 346 kts 56°
2026-04-26 13:46 38.07306 -0.69146 14007 ft 352 kts 56°
2026-04-26 13:47 38.08728 -0.66610 14721 ft 352 kts 56°
2026-04-26 13:47 38.10153 -0.64067 15393 ft 356 kts 56°
2026-04-26 13:47 38.11595 -0.61489 16027 ft 359 kts 56°
2026-04-26 13:47 38.13042 -0.58903 16748 ft 361 kts 56°
2026-04-26 13:48 38.14505 -0.56283 17329 ft 366 kts 56°
2026-04-26 13:48 38.15982 -0.53639 17999 ft 368 kts 56°
2026-04-26 13:48 38.17469 -0.50973 18612 ft 372 kts 55°
2026-04-26 13:48 38.18947 -0.48322 19178 ft 374 kts 55°
2026-04-26 13:49 38.20450 -0.45623 19758 ft 375 kts 56°
2026-04-26 13:49 38.21962 -0.42907 20327 ft 377 kts 56°
2026-04-26 13:49 38.23481 -0.40173 20881 ft 380 kts 56°
2026-04-26 13:49 38.24515 -0.38313 21253 ft 382 kts 56°
2026-04-26 13:50 38.24957 -0.37517 21412 ft 382 kts 56°
2026-04-26 13:50 38.26495 -0.34745 21956 ft 385 kts 56°
2026-04-26 13:50 38.28041 -0.31958 22485 ft 387 kts 56°
2026-04-26 13:50 38.29600 -0.29145 22997 ft 390 kts 56°
2026-04-26 13:51 38.31169 -0.26310 23472 ft 393 kts 56°
2026-04-26 13:51 38.32751 -0.23449 23915 ft 397 kts 56°
2026-04-26 13:51 38.34343 -0.20569 24322 ft 399 kts 56°
2026-04-26 13:51 38.35947 -0.17665 24723 ft 402 kts 56°
2026-04-26 13:52 38.37557 -0.14745 25138 ft 404 kts 56°
2026-04-26 13:52 38.39177 -0.11807 25538 ft 406 kts 56°
2026-04-26 13:52 38.40805 -0.08851 25920 ft 409 kts 56°
2026-04-26 13:52 38.42458 -0.05882 26287 ft 412 kts 53°
2026-04-26 13:53 38.44569 -0.03381 26591 ft 421 kts 34°
2026-04-26 13:53 38.47237 -0.01794 26982 ft 427 kts 19°
2026-04-26 13:53 38.50194 -0.01183 27315 ft 436 kts
2026-04-26 13:53 38.53239 -0.01124 27643 ft 440 kts
2026-04-26 13:54 38.56315 -0.01147 27946 ft 444 kts
2026-04-26 13:54 38.59415 -0.01188 28274 ft 447 kts
2026-04-26 13:54 38.62530 -0.01221 28604 ft 449 kts
2026-04-26 13:55 38.65603 -0.01235 28921 ft 452 kts
2026-04-26 13:55 38.67691 -0.01235 29095 ft 454 kts
2026-04-26 13:55 38.75133 -0.01201 29816 ft 460 kts
2026-04-26 13:56 38.78346 -0.01179 30136 ft 462 kts
2026-04-26 13:56 38.81566 -0.01156 30440 ft 463 kts
2026-04-26 13:56 38.84787 -0.01134 30862 ft 461 kts
2026-04-26 13:56 38.87980 -0.01113 31348 ft 457 kts
2026-04-26 13:57 38.91149 -0.01092 31746 ft 455 kts
2026-04-26 13:57 38.94319 -0.01071 32029 ft 456 kts
2026-04-26 13:57 38.97435 -0.01051 32509 ft 451 kts
2026-04-26 13:57 39.00597 -0.01030 32977 ft 448 kts
2026-04-26 13:58 39.03671 -0.01010 33269 ft 448 kts
2026-04-26 13:58 39.06788 -0.00988 33577 ft 447 kts
2026-04-26 13:58 39.09935 -0.00967 33946 ft 446 kts
2026-04-26 13:58 39.12982 -0.00949 34320 ft 443 kts
2026-04-26 13:59 39.16113 -0.00928 34470 ft 446 kts
2026-04-26 13:59 39.19182 -0.00907 34622 ft 447 kts
2026-04-26 13:59 39.22278 -0.00887 35009 ft 443 kts
2026-04-26 14:00 39.28334 -0.00845 35526 ft 442 kts
2026-04-26 14:00 39.31410 -0.00825 35724 ft 442 kts
2026-04-26 14:00 39.33490 -0.00796 35882 ft 442 kts
2026-04-26 14:01 39.37505 -0.00077 36151 ft 440 kts 15°
2026-04-26 14:01 39.43394 0.02106 36143 ft 440 kts 17°
2026-04-26 14:02 39.49260 0.04378 36145 ft 439 kts 17°
2026-04-26 14:02 39.55124 0.06592 36143 ft 439 kts 16°
2026-04-26 14:03 39.60997 0.08776 36142 ft 439 kts 16°
2026-04-26 14:03 39.66862 0.10953 36146 ft 438 kts 16°
2026-04-26 14:04 39.72727 0.13133 36142 ft 438 kts 17°
2026-04-26 14:04 39.78594 0.15321 36143 ft 439 kts 17°
2026-04-26 14:05 39.81253 0.16314 36133 ft 439 kts 16°
2026-04-26 14:05 39.87121 0.18505 36143 ft 439 kts 17°
2026-04-26 14:06 39.92994 0.20706 36150 ft 439 kts 17°
2026-04-26 14:06 39.98872 0.22913 36137 ft 440 kts 17°
2026-04-26 14:07 40.03759 0.24746 36138 ft 440 kts 16°
2026-04-26 14:07 40.09641 0.26954 36151 ft 440 kts 17°
2026-04-26 14:08 40.15523 0.29166 36155 ft 440 kts 16°
2026-04-26 14:08 40.22356 0.31743 36148 ft 439 kts 16°
2026-04-26 14:09 40.28226 0.33960 36146 ft 439 kts 16°
2026-04-26 14:09 40.33141 0.35820 36149 ft 439 kts 16°
2026-04-26 14:10 40.36102 0.36944 36152 ft 439 kts 16°
2026-04-26 14:10 40.41845 0.39130 36136 ft 438 kts 16°
2026-04-26 14:11 40.50589 0.42466 36130 ft 438 kts 16°
2026-04-26 14:11 40.56440 0.44703 36136 ft 438 kts 16°
2026-04-26 14:12 40.62288 0.46943 36139 ft 438 kts 16°
2026-04-26 14:12 40.68140 0.49189 36130 ft 438 kts 16°
2026-04-26 14:13 40.76920 0.52566 36130 ft 438 kts 16°
2026-04-26 14:14 40.82776 0.54824 36129 ft 439 kts 16°
2026-04-26 14:14 40.88637 0.57087 36134 ft 439 kts 16°
2026-04-26 14:15 40.91503 0.58196 36137 ft 439 kts 15°
2026-04-26 14:15 40.97464 0.60504 36122 ft 439 kts 16°
2026-04-26 14:16 41.03333 0.62782 36127 ft 440 kts 15°
2026-04-26 14:16 41.09209 0.65067 36136 ft 440 kts 15°
2026-04-26 14:17 41.15089 0.67356 36117 ft 441 kts 15°
2026-04-26 14:17 41.20975 0.69649 36129 ft 441 kts 15°
2026-04-26 14:18 41.26862 0.71941 36111 ft 441 kts 16°
2026-04-26 14:18 41.32761 0.74245 36117 ft 442 kts 15°
2026-04-26 14:19 41.38670 0.76559 36117 ft 443 kts 14°
2026-04-26 14:19 41.44579 0.78875 36128 ft 443 kts 15°
2026-04-26 14:20 41.47621 0.80068 36111 ft 443 kts 15°
2026-04-26 14:20 41.53538 0.82394 36095 ft 444 kts 15°
2026-04-26 14:21 41.59457 0.84730 36110 ft 443 kts 15°
2026-04-26 14:21 41.65377 0.87068 36099 ft 444 kts 15°
2026-04-26 14:22 41.71261 0.89395 36097 ft 444 kts 15°
2026-04-26 14:22 41.77219 0.91756 36107 ft 443 kts 15°
2026-04-26 14:23 41.83090 0.94087 36105 ft 443 kts 15°
2026-04-26 14:23 41.88989 0.96432 36107 ft 442 kts 14°
2026-04-26 14:24 41.94871 0.98780 36107 ft 440 kts 15°
2026-04-26 14:24 42.00741 1.01127 36111 ft 439 kts 15°
2026-04-26 14:25 42.03411 1.02194 36106 ft 439 kts 15°
2026-04-26 14:25 42.09294 1.04550 36108 ft 438 kts 15°
2026-04-26 14:26 42.15218 1.06345 36110 ft 435 kts
2026-04-26 14:26 42.21225 1.06001 36152 ft 432 kts 354°
2026-04-26 14:27 42.27215 1.05237 36144 ft 432 kts 354°
2026-04-26 14:27 42.33210 1.04533 36153 ft 432 kts 354°
2026-04-26 14:28 42.39209 1.03870 36151 ft 432 kts 354°
2026-04-26 14:28 42.45203 1.03214 36180 ft 433 kts 355°
2026-04-26 14:29 42.51224 1.02562 36179 ft 434 kts 355°
2026-04-26 14:29 42.57261 1.01908 36180 ft 435 kts 355°
2026-04-26 14:30 42.59811 1.01631 36174 ft 435 kts 355°
2026-04-26 14:30 42.65932 1.00964 36189 ft 435 kts 355°
2026-04-26 14:31 42.71959 1.00306 36170 ft 434 kts 354°
2026-04-26 14:31 42.77972 0.99580 36167 ft 434 kts 350°
2026-04-26 14:32 42.83839 0.97695 36167 ft 433 kts 344°
2026-04-26 14:32 42.89658 0.95588 36157 ft 432 kts 345°
2026-04-26 14:33 42.95436 0.93541 36167 ft 431 kts 345°
2026-04-26 14:33 43.01250 0.91521 36167 ft 431 kts 345°
2026-04-26 14:34 43.07062 0.89511 36167 ft 431 kts 345°
2026-04-26 14:34 43.12870 0.87499 36157 ft 430 kts 345°
2026-04-26 14:35 43.15747 0.86501 36157 ft 430 kts 345°
2026-04-26 14:35 43.21547 0.84484 36153 ft 429 kts 345°
2026-04-26 14:36 43.27332 0.82468 36150 ft 429 kts 346°
2026-04-26 14:36 43.33108 0.80452 36149 ft 428 kts 345°
2026-04-26 14:37 43.38883 0.78431 36149 ft 428 kts 345°
2026-04-26 14:37 43.44647 0.76411 36163 ft 427 kts 346°
2026-04-26 14:38 43.50242 0.73691 36161 ft 427 kts 337°
2026-04-26 14:38 43.55677 0.70411 36154 ft 426 kts 336°
2026-04-26 14:39 43.61064 0.67143 36158 ft 426 kts 337°
2026-04-26 14:39 43.66494 0.63897 36158 ft 425 kts 337°
2026-04-26 14:40 43.69207 0.62287 36161 ft 425 kts 337°
2026-04-26 14:40 43.74637 0.59068 36158 ft 424 kts 337°
2026-04-26 14:41 43.80064 0.55849 36162 ft 424 kts 337°
2026-04-26 14:41 43.85483 0.52627 36167 ft 424 kts 337°
2026-04-26 14:42 43.90900 0.49400 36161 ft 424 kts 337°
2026-04-26 14:42 43.96313 0.46168 36162 ft 423 kts 337°
2026-04-26 14:43 44.01721 0.42932 36162 ft 423 kts 337°
2026-04-26 14:43 44.07125 0.39693 36168 ft 423 kts 337°
2026-04-26 14:44 44.12526 0.36448 36152 ft 423 kts 337°
2026-04-26 14:44 44.17925 0.33199 36162 ft 423 kts 337°
2026-04-26 14:45 44.20552 0.31616 36162 ft 423 kts 337°
2026-04-26 14:45 44.25948 0.28359 36166 ft 423 kts 336°
2026-04-26 14:46 44.31351 0.25090 36171 ft 423 kts 336°
2026-04-26 14:46 44.36753 0.21816 36170 ft 423 kts 336°
2026-04-26 14:47 44.42158 0.18534 36171 ft 424 kts 336°
2026-04-26 14:47 44.47565 0.15243 36168 ft 424 kts 336°
2026-04-26 14:48 44.52933 0.11970 36164 ft 424 kts 336°
2026-04-26 14:48 44.58336 0.08669 36165 ft 424 kts 336°
2026-04-26 14:49 44.63742 0.05359 36168 ft 424 kts 336°
2026-04-26 14:49 44.69144 0.02045 36167 ft 423 kts 336°
2026-04-26 14:50 44.71453 0.00626 36171 ft 423 kts 336°
2026-04-26 14:50 44.76855 -0.02697 36155 ft 423 kts 336°
2026-04-26 14:51 44.82246 -0.06021 36166 ft 423 kts 336°
2026-04-26 14:51 44.87641 -0.09354 36166 ft 423 kts 336°
2026-04-26 14:52 44.93027 -0.12689 36163 ft 423 kts 336°
2026-04-26 14:52 44.98417 -0.16033 36168 ft 423 kts 336°
2026-04-26 14:53 45.03810 -0.19385 36167 ft 423 kts 335°
2026-04-26 14:53 45.09204 -0.22745 36159 ft 424 kts 335°
2026-04-26 14:54 45.14598 -0.26113 36158 ft 424 kts 335°
2026-04-26 14:54 45.19990 -0.29485 36167 ft 423 kts 335°
2026-04-26 14:55 45.23033 -0.31392 36174 ft 423 kts 335°
2026-04-26 14:55 45.27508 -0.34200 36160 ft 423 kts 335°
2026-04-26 14:56 45.32891 -0.37583 36162 ft 423 kts 335°
2026-04-26 14:56 45.39135 -0.41517 36184 ft 422 kts 335°
2026-04-26 14:57 45.43633 -0.44358 36175 ft 422 kts 335°
2026-04-26 14:57 45.48998 -0.47752 36182 ft 422 kts 335°
2026-04-26 14:58 45.54355 -0.51148 36176 ft 421 kts 335°
2026-04-26 14:58 45.59707 -0.54547 36186 ft 421 kts 334°
2026-04-26 14:59 45.65057 -0.57953 36179 ft 421 kts 334°
2026-04-26 14:59 45.70366 -0.61340 36170 ft 420 kts 334°
2026-04-26 15:00 45.72918 -0.62970 36172 ft 420 kts 334°
2026-04-26 15:00 45.78052 -0.66255 36180 ft 420 kts 334°
2026-04-26 15:01 45.83389 -0.69678 36181 ft 420 kts 334°
2026-04-26 15:01 45.88727 -0.73108 36169 ft 420 kts 334°
2026-04-26 15:02 45.94070 -0.76549 36168 ft 421 kts 334°
2026-04-26 15:02 45.99417 -0.79999 36165 ft 422 kts 334°
2026-04-26 15:03 46.04767 -0.83459 36185 ft 421 kts 334°
2026-04-26 15:03 46.10117 -0.86927 36179 ft 422 kts 334°
2026-04-26 15:04 46.15477 -0.90407 36182 ft 423 kts 334°
2026-04-26 15:04 46.20856 -0.93862 36200 ft 424 kts 337°
2026-04-26 15:05 46.23457 -0.95004 36193 ft 427 kts 345°
2026-04-26 15:05 46.28690 -0.96581 36201 ft 428 kts 346°
2026-04-26 15:06 46.34523 -0.98289 36199 ft 428 kts 346°
2026-04-26 15:06 46.40359 -1.00041 36195 ft 429 kts 345°
2026-04-26 15:07 46.49115 -1.02727 36185 ft 429 kts 345°
2026-04-26 15:07 46.54959 -1.04532 36184 ft 429 kts 345°
2026-04-26 15:08 46.60806 -1.06342 36184 ft 430 kts 345°
2026-04-26 15:08 46.66659 -1.08157 36184 ft 430 kts 345°
2026-04-26 15:09 46.72515 -1.09976 36187 ft 430 kts 345°
2026-04-26 15:09 46.77384 -1.11493 36185 ft 431 kts 345°
2026-04-26 15:10 46.80760 -1.12545 36183 ft 431 kts 345°
2026-04-26 15:10 46.87617 -1.14688 36183 ft 431 kts 345°
2026-04-26 15:11 46.93487 -1.16526 36181 ft 431 kts 345°
2026-04-26 15:11 46.99318 -1.18356 36181 ft 432 kts 345°
2026-04-26 15:12 47.05190 -1.20204 36178 ft 432 kts 345°
2026-04-26 15:12 47.11071 -1.22058 36172 ft 432 kts 345°
2026-04-26 15:13 47.16949 -1.23916 36166 ft 433 kts 345°
2026-04-26 15:13 47.22839 -1.25782 36168 ft 433 kts 344°
2026-04-26 15:14 47.28733 -1.27653 36167 ft 434 kts 345°
2026-04-26 15:14 47.33677 -1.29226 36171 ft 434 kts 345°
2026-04-26 15:15 47.37650 -1.30492 36161 ft 435 kts 345°
2026-04-26 15:15 47.43559 -1.32379 36175 ft 435 kts 344°
2026-04-26 15:16 47.49477 -1.34273 36172 ft 435 kts 344°
2026-04-26 15:16 47.55396 -1.36172 36174 ft 435 kts 344°
2026-04-26 15:17 47.60315 -1.37753 36183 ft 435 kts 344°
2026-04-26 15:17 47.67238 -1.39984 36174 ft 436 kts 344°
2026-04-26 15:18 47.73211 -1.41558 36173 ft 439 kts 353°
2026-04-26 15:18 47.79311 -1.41961 36174 ft 439 kts 355°
2026-04-26 15:19 47.85418 -1.42308 36181 ft 439 kts 354°
2026-04-26 15:19 47.90484 -1.42665 36185 ft 438 kts 354°
2026-04-26 15:20 47.95034 -1.43013 36181 ft 438 kts 354°
2026-04-26 15:20 48.01114 -1.43479 36188 ft 437 kts 354°
2026-04-26 15:21 48.07184 -1.43928 36186 ft 437 kts 354°
2026-04-26 15:21 48.13256 -1.44356 36189 ft 436 kts 354°
2026-04-26 15:22 48.19317 -1.44784 36186 ft 436 kts 354°
2026-04-26 15:22 48.25367 -1.45216 36199 ft 435 kts 354°
2026-04-26 15:23 48.31420 -1.45650 36190 ft 435 kts 354°
2026-04-26 15:23 48.37420 -1.46081 36183 ft 432 kts 354°
2026-04-26 15:24 48.40438 -1.46297 35963 ft 427 kts 354°
2026-04-26 15:24 48.43380 -1.46507 35713 ft 419 kts 354°
2026-04-26 15:24 48.46251 -1.46713 35313 ft 417 kts 354°
2026-04-26 15:24 48.48204 -1.46855 35075 ft 415 kts 354°
2026-04-26 15:25 48.49640 -1.46958 34897 ft 413 kts 354°
2026-04-26 15:25 48.51582 -1.47099 34647 ft 411 kts 353°
2026-04-26 15:25 48.55346 -1.47373 34156 ft 408 kts 353°
2026-04-26 15:25 48.58179 -1.47580 33746 ft 406 kts 353°
2026-04-26 15:26 48.60986 -1.47784 33355 ft 403 kts 354°
2026-04-26 15:26 48.63779 -1.47987 32979 ft 400 kts 354°
2026-04-26 15:26 48.66554 -1.48189 32626 ft 397 kts 354°
2026-04-26 15:26 48.69303 -1.48389 32267 ft 395 kts 354°
2026-04-26 15:27 48.72039 -1.48589 31910 ft 392 kts 354°
2026-04-26 15:27 48.74759 -1.48788 31566 ft 390 kts 354°
2026-04-26 15:27 48.77459 -1.48986 31217 ft 388 kts 354°
2026-04-26 15:27 48.80146 -1.49183 30873 ft 386 kts 354°
2026-04-26 15:28 48.82823 -1.49379 30530 ft 384 kts 354°
2026-04-26 15:28 48.85484 -1.49575 30173 ft 382 kts 354°
2026-04-26 15:28 48.88131 -1.49769 29777 ft 380 kts 354°
2026-04-26 15:28 48.90751 -1.50072 29387 ft 375 kts 348°
2026-04-26 15:29 48.93311 -1.50788 28974 ft 372 kts 345°
2026-04-26 15:29 48.95831 -1.51621 28588 ft 370 kts 344°
2026-04-26 15:29 48.99978 -1.53041 28005 ft 365 kts 344°
2026-04-26 15:30 49.03074 -1.54086 27567 ft 362 kts 344°
2026-04-26 15:30 49.05530 -1.54900 27227 ft 360 kts 344°
2026-04-26 15:30 49.07974 -1.55700 26913 ft 358 kts 344°
2026-04-26 15:31 49.10402 -1.56491 26556 ft 356 kts 344°
2026-04-26 15:31 49.15227 -1.58056 25880 ft 352 kts 344°
2026-04-26 15:31 49.17620 -1.58832 25551 ft 351 kts 344°
2026-04-26 15:32 49.20773 -1.59855 25109 ft 349 kts 344°
2026-04-26 15:32 49.24740 -1.61144 24556 ft 347 kts 344°
2026-04-26 15:32 49.27098 -1.61912 24231 ft 346 kts 344°
2026-04-26 15:33 49.29449 -1.62678 23890 ft 346 kts 344°
2026-04-26 15:33 49.31801 -1.63445 23509 ft 345 kts 344°
2026-04-26 15:33 49.34145 -1.64210 23158 ft 343 kts 344°
2026-04-26 15:33 49.36443 -1.64960 22813 ft 342 kts 344°
2026-04-26 15:34 49.38760 -1.65717 22468 ft 340 kts 343°
2026-04-26 15:34 49.41066 -1.66471 22148 ft 338 kts 343°
2026-04-26 15:34 49.43387 -1.67232 21812 ft 336 kts 343°
2026-04-26 15:34 49.44126 -1.67474 21715 ft 335 kts 343°
2026-04-26 15:35 49.45877 -1.68048 21465 ft 334 kts 343°
2026-04-26 15:35 49.48142 -1.68791 21150 ft 332 kts 343°
2026-04-26 15:35 49.50394 -1.69532 20828 ft 331 kts 343°
2026-04-26 15:35 49.52640 -1.70271 20524 ft 329 kts 343°
2026-04-26 15:36 49.54875 -1.71007 20205 ft 328 kts 343°
2026-04-26 15:36 49.57102 -1.71741 19888 ft 327 kts 343°
2026-04-26 15:36 49.59322 -1.72472 19567 ft 326 kts 343°
2026-04-26 15:36 49.61546 -1.73172 19184 ft 328 kts 343°
2026-04-26 15:37 49.63785 -1.73831 18856 ft 327 kts 344°
2026-04-26 15:37 49.66022 -1.74477 18522 ft 327 kts 344°
2026-04-26 15:37 49.68256 -1.75124 18148 ft 326 kts 344°
2026-04-26 15:37 49.70479 -1.75770 17828 ft 324 kts 344°
2026-04-26 15:38 49.72689 -1.76416 17515 ft 322 kts 345°
2026-04-26 15:38 49.74881 -1.77059 17199 ft 320 kts 345°
2026-04-26 15:38 49.77063 -1.77701 16882 ft 318 kts 345°
2026-04-26 15:38 49.79233 -1.78340 16574 ft 316 kts 345°
2026-04-26 15:39 49.81387 -1.78976 16267 ft 315 kts 345°
2026-04-26 15:39 49.83532 -1.79610 15961 ft 313 kts 346°
2026-04-26 15:39 49.85667 -1.80242 15659 ft 311 kts 346°
2026-04-26 15:39 49.86354 -1.80446 15562 ft 311 kts 346°
2026-04-26 15:40 49.88032 -1.80943 15326 ft 310 kts 346°
2026-04-26 15:40 49.90145 -1.81570 15025 ft 308 kts 346°
2026-04-26 15:40 49.92248 -1.82194 14726 ft 307 kts 346°
2026-04-26 15:40 49.94316 -1.82808 14432 ft 306 kts 347°
2026-04-26 15:41 49.96406 -1.83429 14135 ft 305 kts 347°
2026-04-26 15:41 49.98492 -1.84050 13811 ft 305 kts 347°
2026-04-26 15:41 50.00588 -1.84522 13476 ft 305 kts 357°
2026-04-26 15:41 50.02700 -1.84344 13223 ft 303 kts
2026-04-26 15:42 50.04790 -1.83977 12919 ft 302 kts
2026-04-26 15:42 50.06870 -1.83615 12623 ft 300 kts
2026-04-26 15:42 50.08943 -1.83294 12328 ft 298 kts
2026-04-26 15:42 50.11007 -1.82999 12033 ft 297 kts
2026-04-26 15:43 50.13062 -1.82715 11731 ft 296 kts
2026-04-26 15:43 50.15097 -1.82255 11436 ft 296 kts 13°
2026-04-26 15:43 50.18374 -1.80803 10972 ft 294 kts 17°
2026-04-26 15:44 50.20328 -1.79867 10677 ft 293 kts 17°
2026-04-26 15:44 50.24197 -1.78048 10293 ft 285 kts 17°
2026-04-26 15:44 50.26093 -1.77176 9995 ft 284 kts 16°
2026-04-26 15:45 50.29870 -1.75458 9428 ft 281 kts 16°
2026-04-26 15:45 50.31746 -1.74609 9159 ft 280 kts 16°
2026-04-26 15:46 50.35465 -1.72930 8602 ft 277 kts 16°
2026-04-26 15:46 50.37314 -1.72096 8350 ft 275 kts 16°
2026-04-26 15:46 50.39151 -1.71266 8080 ft 274 kts 16°
2026-04-26 15:46 50.40365 -1.70718 7894 ft 274 kts 16°
2026-04-26 15:47 50.42788 -1.69623 7717 ft 266 kts 16°
2026-04-26 15:47 50.46263 -1.68050 7469 ft 253 kts 16°
2026-04-26 15:47 50.47931 -1.67295 7362 ft 246 kts 16°
2026-04-26 15:48 50.49590 -1.66980 7223 ft 239 kts 348°
2026-04-26 15:48 50.51075 -1.68011 7042 ft 233 kts 323°
2026-04-26 15:48 50.52335 -1.69617 6795 ft 233 kts 317°
2026-04-26 15:48 50.53554 -1.71339 6357 ft 242 kts 317°
2026-04-26 15:49 50.54811 -1.73140 6004 ft 246 kts 317°
2026-04-26 15:49 50.55912 -1.75178 5727 ft 245 kts 301°
2026-04-26 15:49 50.56785 -1.77493 5400 ft 247 kts 300°
2026-04-26 15:49 50.57670 -1.79831 5087 ft 250 kts 300°
2026-04-26 15:50 50.58563 -1.82187 4800 ft 251 kts 300°
2026-04-26 15:50 50.59454 -1.84541 4543 ft 250 kts 300°
2026-04-26 15:50 50.60340 -1.86890 4298 ft 249 kts 301°
2026-04-26 15:50 50.61206 -1.89204 4043 ft 248 kts 300°
2026-04-26 15:51 50.62075 -1.91549 3798 ft 248 kts 300°
2026-04-26 15:51 50.62939 -1.93891 3544 ft 247 kts 300°
2026-04-26 15:51 50.63802 -1.96228 3294 ft 247 kts 300°
2026-04-26 15:51 50.64666 -1.98567 3048 ft 247 kts 300°
2026-04-26 15:52 50.65517 -2.00887 2825 ft 242 kts 302°
2026-04-26 15:52 50.66698 -2.02707 2539 ft 234 kts 334°
2026-04-26 15:52 50.68226 -2.03517 2423 ft 229 kts 346°
2026-04-26 15:52 50.69226 -2.03981 2379 ft 224 kts 345°
2026-04-26 15:53 50.71121 -2.04870 2201 ft 204 kts 345°
2026-04-26 15:53 50.72465 -2.05177 2038 ft 191 kts 12°
2026-04-26 15:53 50.73695 -2.04560 2025 ft 186 kts 22°
2026-04-26 15:53 50.74724 -2.03472 1941 ft 171 kts 67°
2026-04-26 15:54 50.74978 -2.01776 1995 ft 156 kts 76°
2026-04-26 15:54 50.75414 -2.00229 1979 ft 159 kts 71°
2026-04-26 15:54 50.75678 -1.98494 1755 ft 162 kts 79°
2026-04-26 15:54 50.75936 -1.96768 1551 ft 160 kts 79°
2026-04-26 15:55 50.76207 -1.95110 1343 ft 151 kts 78°
2026-04-26 15:55 50.76470 -1.93512 1123 ft 153 kts 77°
2026-04-26 15:55 50.76736 -1.91908 947 ft 151 kts 78°
2026-04-26 15:55 50.77002 -1.90299 752 ft 151 kts 76°
2026-04-26 15:56 50.77265 -1.88714 531 ft 148 kts 78°
2026-04-26 15:56 50.77528 -1.87163 334 ft 146 kts 78°
2026-04-26 15:56 50.77787 -1.85613 137 ft 146 kts 77°
2026-04-26 15:56 50.78033 -1.84105 42 ft 129 kts 75°
2026-04-26 15:57 50.78189 -1.83190 45 ft 36 kts 75°
2026-04-26 15:57 50.78171 -1.83047 45 ft 11 kts 174°
2026-04-26 15:57 50.78114 -1.83124 45 ft 11 kts 236°
2026-04-26 15:57 50.78086 -1.83190 45 ft 11 kts 236°
2026-04-26 15:58 50.78036 -1.83323 43 ft 10 kts 246°
2026-04-26 15:58 50.77999 -1.83433 45 ft 13 kts 237°
2026-04-26 15:58 50.77916 -1.83490 45 ft 14 kts 173°
2026-04-26 15:58 50.77823 -1.83472 45 ft 13 kts 177°
2026-04-26 15:59 50.77739 -1.83465 45 ft 6 kts 166°
2026-04-26 15:59 50.77728 -1.83416 45 ft 5 kts 88°
2026-04-26 15:59 50.77729 -1.83387 45 ft 0 kts 86°
2026-04-26 15:59 50.77729 -1.83374 45 ft 0 kts 86°